Simultaneous Nadir Overpasses (SNOs) Predictions

Prediction of SNOs between AURA and LANDSAT-8 Satellite Orbit:

Table of predicted SNOs for the next 14.0 days since TLE Epoch: 12/31/1999
Index Date (AURA) Time (AURA) Lat,Lon (AURA) SZA (AURA ) Date (LANDSAT-8) Time (LANDSAT-8) Lat,Lon (LANDSAT-8) SZA (LANDSAT-8 ) Distance(km) Time Diff (sec)
1 01/01/2000 03:46:35 90.00,-156.77 99.19 01/01/2000 03:46:35 90.00,-156.77 99.19 0.00 0
2 01/02/2000 07:33:17 90.00, 145.41 98.31 01/02/2000 07:33:17 90.00, 145.41 98.31 0.00 0
3 01/03/2000 11:19:57 90.00, 87.61 97.43 01/03/2000 11:19:57 90.00, 87.61 97.43 0.00 0
4 01/04/2000 15:06:36 90.00, 29.80 96.55 01/04/2000 15:06:36 90.00, 29.80 96.55 0.00 0
5 01/05/2000 18:53:16 90.00, -28.00 95.66 01/05/2000 18:53:16 90.00, -28.00 95.66 0.00 0
6
